FW7026 Weather Reports


Display with metric or nautical units.
time (UTC)temp
F
wind
direction
speed
MPH
gust
MPH
rain 1hr
in
rain 24hr
in
rain mn
in
humidity
%
barometer
mb
20260902121847 54 145 0.0 0.0 0.00 0.00 0.00 91 1022.7
20260902121342 54 189 0.0 0.0 0.00 0.00 0.00 92 1022.4
20260902120838 53 10 0.0 0.0 0.00 0.00 0.00 92 1022.4
20260902120334 53 31 0.0 0.0 0.00 0.00 0.00 92 1022.4
20260902115828 52 183 0.0 0.0 0.00 0.00 0.00 92 1022.4
20260902115325 52 183 0.0 0.0 0.00 0.00 0.00 92 1022.4
20260902114821 52 210 0.0 0.0 0.00 0.00 0.00 92 1022.4
20260902114317 52 112 0.0 0.0 0.00 0.00 0.00 92 1022.4
20260902113816 52 112 0.0 0.0 0.00 0.00 0.00 92 1022.4
20260902113138 52 166 0.0 0.0 0.00 0.00 0.00 92 1022.4
20260902112633 52 166 0.0 0.0 0.00 0.00 0.00 92 1022.4
20260902112130 52 166 0.0 0.0 0.00 0.00 0.00 92 1022.4
20260902111625 52 213 0.0 0.0 0.00 0.00 0.00 92 1022.7
20260902111120 52 213 0.0 0.0 0.00 0.00 0.00 92 1022.7
20260902110257 51 187 0.0 0.0 0.00 0.00 0.00 92 1022.4
20260902105756 51 187 0.0 0.0 0.00 0.00 0.00 92 1022.4
20260902105252 50 196 0.0 0.0 0.00 0.00 0.00 92 1022.4
20260902104747 50 196 0.0 0.0 0.00 0.00 0.00 92 1022.4
20260902104243 50 199 0.0 0.0 0.00 0.00 0.00 92 1022.7
20260902103743 49 195 0.0 0.0 0.00 0.00 0.00 92 1022.4
20260902103237 49 195 0.0 0.0 0.00 0.00 0.00 92 1022.4
20260902102733 49 193 0.0 0.0 0.00 0.00 0.00 92 1022.4
20260902102230 49 205 0.0 0.0 0.00 0.00 0.00 92 1022.4
20260902101725 49 205 0.0 0.0 0.00 0.00 0.00 92 1022.4
20260902101220 49 190 0.0 0.0 0.00 0.00 0.00 92 1022.4
20260902100718 49 190 0.0 0.0 0.00 0.00 0.00 92 1022.4
20260902100017 48 201 0.0 0.0 0.00 0.00 0.00 92 1021.9
20260902095517 48 201 0.0 0.0 0.00 0.00 0.00 92 1021.9
20260902095015 48 201 0.0 0.0 0.00 0.00 0.00 92 1021.9
20260902094327 48 193 0.0 0.0 0.00 0.00 0.00 92 1022.4
20260902093826 48 193 0.0 0.0 0.00 0.00 0.00 92 1022.4
20260902093321 48 197 0.0 0.0 0.00 0.00 0.00 92 1022.4
20260902092821 49 202 0.0 0.0 0.00 0.00 0.00 92 1022.4
20260902092316 49 203 0.0 0.0 0.00 0.00 0.00 92 1022.4
20260902090444 49 201 0.0 0.0 0.00 0.00 0.00 92 1021.9
20260902085942 49 201 0.0 0.0 0.00 0.00 0.00 92 1021.9
20260902085437 50 200 0.0 0.0 0.00 0.00 0.00 92 1021.9
20260902084932 49 201 0.0 0.0 0.00 0.00 0.00 92 1021.9
20260902084429 49 201 0.0 0.0 0.00 0.00 0.00 92 1021.9
20260902083924 49 203 0.0 0.0 0.00 0.00 0.00 92 1021.9
20260902083425 49 200 0.0 0.0 0.00 0.00 0.00 92 1021.9
20260902082924 49 200 0.0 0.0 0.00 0.00 0.00 92 1021.9
20260902082420 48 195 0.0 0.0 0.00 0.00 0.00 92 1021.9
20260902081917 48 195 0.0 0.0 0.00 0.00 0.00 92 1021.9
20260902081227 49 204 0.0 0.0 0.00 0.00 0.00 91 1021.6
20260902080721 49 204 0.0 0.0 0.00 0.00 0.00 91 1021.6
20260902080218 49 204 0.0 0.0 0.00 0.00 0.00 91 1021.6
20260902075424 49 210 0.0 0.0 0.00 0.00 0.00 91 1021.6
20260902074919 49 210 0.0 0.0 0.00 0.00 0.00 91 1021.6
20260902074414 49 195 0.0 0.0 0.00 0.00 0.00 91 1021.3
20260902073909 49 195 0.0 0.0 0.00 0.00 0.00 91 1021.3
20260902073405 49 201 0.0 0.0 0.00 0.00 0.00 91 1021.3
20260902072901 49 199 0.0 0.0 0.00 0.00 0.00 91 1021.3
20260902072351 49 199 0.0 0.0 0.00 0.00 0.00 91 1021.3
20260902071847 49 199 0.0 0.0 0.00 0.00 0.00 91 1021.3
20260902071347 49 197 0.0 0.0 0.00 0.00 0.00 91 1021.3
20260902070843 48 197 0.0 0.0 0.00 0.00 0.00 91 1021.3
20260902070338 49 194 0.0 0.0 0.00 0.00 0.00 91 1021.3
20260902065836 49 197 0.0 0.0 0.00 0.00 0.00 90 1021.3
20260902065332 49 197 0.0 0.0 0.00 0.00 0.00 90 1021.3
20260902064827 49 204 0.0 0.0 0.00 0.00 0.00 90 1021.3
20260902064323 49 204 0.0 0.0 0.00 0.00 0.00 90 1021.3
20260902063818 50 199 0.0 0.0 0.00 0.00 0.00 90 1021.3
20260902063226 50 206 0.0 0.0 0.00 0.00 0.00 90 1021.3
20260902062720 50 206 0.0 0.0 0.00 0.00 0.00 90 1021.3
20260902062215 50 199 0.0 0.0 0.00 0.00 0.00 89 1021.3
20260902061713 50 195 0.0 0.0 0.00 0.00 0.00 89 1021.3
20260902061209 50 192 0.0 0.0 0.00 0.00 0.00 89 1021.3
20260902060706 50 197 0.0 0.0 0.00 0.00 0.00 87 1020.9
20260902060201 50 197 0.0 0.0 0.00 0.00 0.00 87 1020.9
20260902055657 50 192 0.0 0.0 0.00 0.00 0.00 86 1020.9
20260902055153 50 192 0.0 0.0 0.00 0.00 0.00 86 1020.9
20260902054648 50 194 0.0 0.0 0.00 0.00 0.00 85 1020.9
20260902054143 50 199 0.0 0.0 0.00 0.00 0.00 84 1020.9
20260902053639 50 199 0.0 0.0 0.00 0.00 0.00 84 1020.9
20260902053139 50 197 0.0 0.0 0.00 0.00 0.00 83 1020.9
20260902052633 50 199 0.0 0.0 0.00 0.00 0.00 82 1020.9
20260902052129 50 199 0.0 0.0 0.00 0.00 0.00 82 1020.9
20260902051627 50 203 0.0 0.0 0.00 0.00 0.00 81 1020.9
20260902051122 50 203 0.0 0.0 0.00 0.00 0.00 81 1020.9
20260902050621 51 204 0.0 0.0 0.00 0.00 0.00 80 1020.9
20260902050117 50 198 0.0 0.0 0.00 0.00 0.00 79 1020.6
20260902045612 50 191 0.0 0.0 0.00 0.00 0.00 78 1020.9
20260902045109 51 202 0.0 0.0 0.00 0.00 0.00 78 1020.6
20260902044608 51 198 0.0 0.0 0.00 0.00 0.00 77 1020.6
20260902044104 51 198 0.0 0.0 0.00 0.00 0.00 77 1020.6
20260902043559 51 195 0.0 0.0 0.00 0.00 0.00 76 1020.6
20260902043054 51 195 0.0 0.0 0.00 0.00 0.00 76 1020.6
20260902042554 51 202 0.0 0.0 0.00 0.00 0.00 76 1020.6
20260902042050 51 202 0.0 0.0 0.00 0.00 0.00 76 1020.6
20260902041549 52 195 0.0 0.0 0.00 0.00 0.00 75 1020.2
20260902041044 51 196 0.0 0.0 0.00 0.00 0.00 75 1020.2
20260902040543 52 200 0.0 0.0 0.00 0.00 0.00 75 1020.2
20260902040038 52 200 0.0 0.0 0.00 0.00 0.00 75 1020.2
20260902035537 52 209 0.0 0.0 0.00 0.00 0.00 74 1020.6
20260902035033 52 209 0.0 0.0 0.00 0.00 0.00 74 1020.6
20260902034532 52 209 0.0 0.0 0.00 0.00 0.00 74 1020.6
20260902034031 52 195 0.0 0.0 0.00 0.00 0.00 73 1020.2
20260902033531 52 195 0.0 0.0 0.00 0.00 0.00 73 1020.2
20260902033026 53 195 0.0 0.0 0.00 0.00 0.00 72 1020.6
20260902032524 53 204 0.0 0.0 0.00 0.00 0.00 71 1020.2
20260902032020 53 204 0.0 0.0 0.00 0.00 0.00 71 1020.2
20260902031514 53 210 0.0 0.0 0.00 0.00 0.00 71 1020.2
20260902031010 53 202 0.0 0.0 0.00 0.00 0.00 70 1020.2
20260902030505 54 201 0.0 0.0 0.00 0.00 0.00 69 1020.2
20260902030005 54 204 0.0 0.0 0.00 0.00 0.00 68 1020.2
20260902025500 54 204 0.0 0.0 0.00 0.00 0.00 68 1020.2
20260902025000 54 204 0.0 0.0 0.00 0.00 0.00 66 1019.9
20260902024455 54 204 0.0 0.0 0.00 0.00 0.00 66 1019.9
20260902023950 55 198 0.0 0.0 0.00 0.00 0.00 66 1019.9
20260902023446 55 203 0.0 0.0 0.00 0.00 0.00 64 1019.9
20260902022945 55 203 0.0 0.0 0.00 0.00 0.00 64 1019.9
20260902022441 55 203 0.0 0.0 0.00 0.00 0.00 64 1019.9
20260902021936 56 206 0.0 0.0 0.00 0.00 0.00 61 1019.9
20260902021431 56 206 0.0 0.0 0.00 0.00 0.00 61 1019.9
20260902020926 56 190 0.0 0.0 0.00 0.00 0.00 61 1019.9
20260902020423 56 211 0.0 0.0 0.00 0.00 0.00 59 1019.6
20260902015918 56 211 0.0 0.0 0.00 0.00 0.00 59 1019.6
20260902015413 57 198 0.0 0.0 0.00 0.00 0.00 59 1019.6
20260902014909 57 198 0.0 0.0 0.00 0.00 0.00 59 1019.6
20260902014406 57 201 0.0 0.0 0.00 0.00 0.00 58 1019.6
20260902013904 57 206 0.0 0.0 0.00 0.00 0.00 57 1019.6
20260902013400 57 206 0.0 0.0 0.00 0.00 0.00 57 1019.6
20260902012855 58 204 0.0 0.0 0.00 0.00 0.00 56 1019.6
20260902012351 56 203 0.0 0.0 0.00 0.00 0.00 59 1019.6
20260902011847 56 203 0.0 0.0 0.00 0.00 0.00 59 1019.6
20260902011346 57 202 0.0 0.0 0.00 0.00 0.00 59 1019.6
20260902010846 57 202 0.0 0.0 0.00 0.00 0.00 59 1019.6
20260902010341 57 217 0.0 0.0 0.00 0.00 0.00 58 1019.6
20260902005841 57 210 0.0 0.0 0.00 0.00 0.00 58 1019.2
20260902005335 57 210 0.0 0.0 0.00 0.00 0.00 58 1019.2
20260902004831 57 209 0.0 0.0 0.00 0.00 0.00 59 1019.2
20260902004330 58 211 0.0 0.0 0.00 0.00 0.00 58 1019.2
20260902003826 58 211 0.0 0.0 0.00 0.00 0.00 58 1019.2
20260902003321 58 210 0.0 0.0 0.00 0.00 0.00 58 1019.2
20260902002817 58 217 0.0 0.0 0.00 0.00 0.00 58 1019.2
20260902002315 58 217 0.0 0.0 0.00 0.00 0.00 58 1019.2
20260902001335 58 217 0.0 0.0 0.00 0.00 0.00 57 1019.2
20260902000830 58 217 0.0 0.0 0.00 0.00 0.00 57 1019.2
20260902000330 58 212 0.0 0.0 0.00 0.00 0.00 58 1019.2
20260901235826 58 209 0.0 0.0 0.00 0.00 0.00 58 1019.2
20260901235325 58 214 0.0 0.0 0.00 0.00 0.00 57 1019.2
20260901234820 58 218 0.0 0.0 0.00 0.00 0.00 59 1018.9
20260901234314 58 218 0.0 0.0 0.00 0.00 0.00 59 1018.9
20260901233809 58 222 0.0 0.0 0.00 0.00 0.00 59 1018.9
20260901233259 58 222 0.0 0.0 0.00 0.00 0.00 59 1018.9
20260901232754 58 215 0.0 0.0 0.00 0.00 0.00 58 1018.9
20260901232243 58 202 0.0 0.0 0.00 0.00 0.00 59 1018.9
20260901231739 58 215 0.0 0.0 0.00 0.00 0.00 58 1018.5
20260901231236 59 222 0.0 0.0 0.00 0.00 0.00 58 1018.9
20260901230726 59 220 0.0 0.0 0.00 0.00 0.00 58 1018.5
20260901230225 59 230 0.0 0.0 0.00 0.00 0.00 58 1018.5
20260901225720 60 233 0.0 0.0 0.00 0.00 0.00 56 1018.5
20260901225215 60 233 0.0 0.0 0.00 0.00 0.00 56 1018.5
20260901224711 60 224 0.0 0.0 0.00 0.00 0.00 56 1018.5
20260901224206 61 220 0.0 0.0 0.00 0.00 0.00 56 1018.5
20260901223702 61 230 0.0 0.0 0.00 0.00 0.00 56 1018.5
20260901223157 63 220 0.0 0.0 0.00 0.00 0.00 53 1018.5
20260901222654 63 220 0.0 0.0 0.00 0.00 0.00 53 1018.5
20260901222149 63 220 0.0 0.0 0.00 0.00 0.00 53 1018.5
20260901221645 64 212 0.0 0.0 0.00 0.00 0.00 50 1018.2
20260901221141 64 212 0.0 0.0 0.00 0.00 0.00 50 1018.2
20260901220640 65 225 0.0 0.0 0.00 0.00 0.00 50 1018.2
20260901220139 66 220 0.0 0.0 0.00 0.00 0.00 49 1018.2
20260901215638 66 220 0.0 0.0 0.00 0.00 0.00 49 1018.2
20260901215132 66 220 0.0 0.0 0.00 0.00 0.00 49 1018.2
20260901214630 66 216 0.0 0.0 0.00 0.00 0.00 47 1018.2
20260901214125 66 206 0.0 0.0 0.00 0.00 0.00 47 1018.2
20260901213625 66 210 0.0 0.0 0.00 0.00 0.00 47 1018.2
20260901213119 66 205 0.0 0.0 0.00 0.00 0.00 51 1018.2
20260901212427 68 206 0.0 0.0 0.00 0.00 0.00 42 1017.8
20260901211924 68 206 0.0 0.0 0.00 0.00 0.00 42 1017.8
20260901211419 68 206 0.0 0.0 0.00 0.00 0.00 42 1017.8
20260901210915 69 71 0.0 0.0 0.00 0.00 0.00 40 1017.8
20260901210410 69 23 0.0 0.0 0.00 0.00 0.00 40 1017.8
20260901205907 69 242 0.0 0.0 0.00 0.00 0.00 40 1017.8
20260901205407 70 351 0.0 0.0 0.00 0.00 0.00 41 1017.8
20260901204901 70 351 0.0 0.0 0.00 0.00 0.00 41 1017.8
20260901204353 70 225 0.0 0.0 0.00 0.00 0.00 40 1017.8
20260901203852 70 225 0.0 0.0 0.00 0.00 0.00 40 1017.8
20260901203347 70 225 0.0 0.0 0.00 0.00 0.00 40 1017.8
20260901202841 70 225 0.0 0.0 0.00 0.00 0.00 42 1017.8
20260901202336 70 225 0.0 0.0 0.00 0.00 0.00 42 1017.8
20260901201833 70 219 0.0 0.0 0.00 0.00 0.00 38 1017.8
20260901201332 69 185 0.0 0.0 0.00 0.00 0.00 45 1017.8
20260901200826 69 185 0.0 0.0 0.00 0.00 0.00 45 1017.8
20260901200321 69 185 0.0 0.0 0.00 0.00 0.00 45 1017.8
20260901195820 69 182 0.0 0.0 0.00 0.00 0.00 44 1018.2
20260901195318 69 182 0.0 0.0 0.00 0.00 0.00 44 1018.2
20260901194444 75 185 0.0 0.0 0.00 0.00 0.00 38 1018.2
20260901193940 75 185 0.0 0.0 0.00 0.00 0.00 38 1018.2
20260901193439 75 122 0.0 0.0 0.00 0.00 0.00 36 1017.8
20260901192939 75 199 0.0 0.0 0.00 0.00 0.00 37 1017.8
20260901192435 75 164 0.0 0.0 0.00 0.00 0.00 36 1017.8
20260901191931 74 140 0.0 0.0 0.00 0.00 0.00 37 1018.2
20260901191427 74 140 0.0 0.0 0.00 0.00 0.00 37 1018.2
20260901190922 74 140 0.0 0.0 0.00 0.00 0.00 37 1018.2
20260901190422 73 238 0.0 0.0 0.00 0.00 0.00 41 1017.8
20260901185920 72 33 0.0 0.0 0.00 0.00 0.00 44 1018.2
20260901184154 73 179 0.0 0.0 0.00 0.00 0.00 42 1017.8
20260901183649 73 179 0.0 0.0 0.00 0.00 0.00 42 1017.8
20260901183143 72 179 0.0 0.0 0.00 0.00 0.00 41 1017.8
20260901182640 73 183 0.0 0.0 0.00 0.00 0.00 38 1017.8
20260901182138 73 183 0.0 0.0 0.00 0.00 0.00 38 1017.8
20260901181633 74 204 0.0 0.0 0.00 0.00 0.00 41 1017.8
20260901181128 72 102 0.0 0.0 0.00 0.00 0.00 38 1018.2
20260901180628 72 102 0.0 0.0 0.00 0.00 0.00 38 1018.2
20260901180122 73 300 0.0 0.0 0.00 0.00 0.00 40 1017.8
20260901175621 72 223 0.0 0.0 0.00 0.00 0.00 42 1017.8
20260901175116 72 223 0.0 0.0 0.00 0.00 0.00 42 1017.8
20260901174611 72 199 0.0 0.0 0.00 0.00 0.00 38 1018.2
20260901174102 72 211 0.0 0.0 0.00 0.00 0.00 41 1017.8
20260901173601 71 331 0.0 0.0 0.00 0.00 0.00 41 1018.2
20260901173057 72 325 0.0 2.0 0.00 0.00 0.00 43 1017.8
20260901172553 72 325 0.0 2.0 0.00 0.00 0.00 43 1017.8
20260901172051 71 138 0.0 0.0 0.00 0.00 0.00 37 1017.8
20260901171550 71 256 0.0 0.0 0.00 0.00 0.00 42 1017.8
20260901171049 71 256 0.0 0.0 0.00 0.00 0.00 42 1017.8
20260901170543 71 213 0.0 0.0 0.00 0.00 0.00 44 1017.8
20260901170039 71 164 0.0 0.0 0.00 0.00 0.00 42 1017.8
20260901165538 70 199 0.0 0.0 0.00 0.00 0.00 43 1017.8
20260901165034 70 137 0.0 5.0 0.00 0.00 0.00 39 1018.2
20260901164529 70 339 0.0 0.0 0.00 0.00 0.00 37 1017.8
20260901164024 71 155 0.0 0.0 0.00 0.00 0.00 42 1017.8
20260901163519 71 155 0.0 0.0 0.00 0.00 0.00 42 1017.8
20260901163018 71 155 0.0 0.0 0.00 0.00 0.00 42 1017.8
20260901162356 69 283 0.0 0.0 0.00 0.00 0.00 41 1018.2
20260901161855 69 283 0.0 0.0 0.00 0.00 0.00 41 1018.2
20260901161350 68 336 0.0 0.0 0.00 0.00 0.00 45 1018.2
20260901160845 68 336 0.0 0.0 0.00 0.00 0.00 45 1018.2
20260901160342 68 336 0.0 0.0 0.00 0.00 0.00 45 1018.2
20260901155840 67 199 0.0 0.0 0.00 0.00 0.00 49 1018.2
20260901155335 67 199 0.0 0.0 0.00 0.00 0.00 49 1018.2
20260901154832 67 149 0.0 0.0 0.00 0.00 0.00 46 1018.5
20260901154330 68 235 0.0 0.0 0.00 0.00 0.00 44 1018.5
20260901153825 70 221 0.0 0.0 0.00 0.00 0.00 46 1018.5
20260901153320 70 221 0.0 0.0 0.00 0.00 0.00 46 1018.5
20260901152819 70 109 0.0 0.0 0.00 0.00 0.00 45 1018.5
20260901152318 70 109 0.0 0.0 0.00 0.00 0.00 45 1018.5
20260901151629 71 296 0.0 0.0 0.00 0.00 0.00 49 1018.5
20260901151128 71 296 0.0 0.0 0.00 0.00 0.00 49 1018.5
20260901150626 70 152 0.0 0.0 0.00 0.00 0.00 46 1018.5
20260901150120 69 218 0.0 0.0 0.00 0.00 0.00 48 1018.5
20260901145618 70 200 0.0 0.0 0.00 0.00 0.00 46 1018.5
20260901144937 69 4 0.0 0.0 0.00 0.00 0.00 48 1018.9
20260901144433 69 4 0.0 0.0 0.00 0.00 0.00 48 1018.9
20260901143928 69 217 0.0 0.0 0.00 0.00 0.00 49 1018.5
20260901143424 69 170 0.0 0.0 0.00 0.00 0.00 49 1018.9
20260901142920 69 170 0.0 0.0 0.00 0.00 0.00 49 1018.9
20260901141903 70 199 0.0 0.0 0.00 0.00 0.00 51 1018.9
20260901141358 70 199 0.0 0.0 0.00 0.00 0.00 51 1018.9
20260901140857 67 245 0.0 0.0 0.00 0.00 0.00 56 1018.9
20260901140355 67 245 0.0 0.0 0.00 0.00 0.00 56 1018.9
20260901135850 66 167 0.0 0.0 0.00 0.00 0.00 63 1017.8
20260901135346 67 244 0.0 0.0 0.00 0.00 0.00 61 1018.5
20260901134842 67 244 0.0 0.0 0.00 0.00 0.00 61 1018.5
20260901134337 65 190 0.0 0.0 0.00 0.00 0.00 64 1018.5
20260901133837 65 190 0.0 0.0 0.00 0.00 0.00 64 1018.5
20260901133336 64 202 0.0 0.0 0.00 0.00 0.00 67 1018.5
20260901132835 64 228 0.0 0.0 0.00 0.00 0.00 66 1018.5
20260901132329 64 228 0.0 0.0 0.00 0.00 0.00 66 1018.5
20260901131823 64 304 0.0 0.0 0.00 0.00 0.00 67 1018.2
20260901131323 63 48 0.0 0.0 0.00 0.00 0.00 67 1018.5
20260901130818 63 48 0.0 0.0 0.00 0.00 0.00 67 1018.5
20260901130312 64 128 0.0 0.0 0.00 0.00 0.00 69 1018.2
20260901125810 63 219 0.0 0.0 0.00 0.00 0.00 70 1018.2
20260901125308 62 171 0.0 0.0 0.00 0.00 0.00 71 1018.2
20260901124800 62 187 0.0 0.0 0.00 0.00 0.00 74 1018.2
20260901124254 62 187 0.0 0.0 0.00 0.00 0.00 74 1018.2
20260901123754 60 47 0.0 0.0 0.00 0.00 0.00 75 1017.8
20260901123249 60 47 0.0 0.0 0.00 0.00 0.00 75 1017.8
20260901122748 58 160 0.0 0.0 0.00 0.00 0.00 77 1018.2
20260901122243 59 191 0.0 0.0 0.00 0.00 0.00 78 1017.8